TimeCEST,TemperatureF,Dew PointF,Humidity,Sea Level PressureIn,VisibilityMPH,Wind Direction,Wind SpeedMPH,Gust SpeedMPH,PrecipitationIn,Events,Conditions,WindDirDegrees,DateUTC
12:25 AM,46.4,41.0,81,30.01,6.2,South,5.8,-,N/A,,Unknown,180,2013-05-10 22:25:00
12:55 AM,48.2,42.8,82,30.01,6.2,SSW,8.1,-,N/A,,Unknown,200,2013-05-10 22:55:00
1:25 AM,48.2,42.8,82,30.01,6.2,South,6.9,-,N/A,,Scattered Clouds,190,2013-05-10 23:25:00
1:55 AM,46.4,42.8,87,30.01,6.2,South,6.9,-,N/A,,Partly Cloudy,190,2013-05-10 23:55:00
2:00 AM,47,43,80,30.01,11,South,6.7,,,,Partly Cloudy,190,2013-05-11 00:00:00
2:25 AM,46.4,42.8,87,29.98,6.2,South,6.9,-,N/A,,Unknown,190,2013-05-11 00:25:00
2:55 AM,46.4,42.8,87,29.98,6.2,South,6.9,-,N/A,,Partly Cloudy,190,2013-05-11 00:55:00
3:25 AM,48.2,44.6,87,29.98,6.2,SSW,8.1,-,N/A,,Overcast,200,2013-05-11 01:25:00
3:55 AM,48.2,42.8,82,29.98,6.2,SSW,9.2,-,N/A,,Partly Cloudy,200,2013-05-11 01:55:00
4:25 AM,46.4,42.8,87,29.95,6.2,SSW,9.2,-,N/A,,Unknown,210,2013-05-11 02:25:00
4:55 AM,46.4,42.8,87,29.95,6.2,South,6.9,-,N/A,,Partly Cloudy,190,2013-05-11 02:55:00
5:00 AM,47,43,82,29.97,12,South,6.7,,,,Scattered Clouds,190,2013-05-11 03:00:00
5:25 AM,48.2,42.8,82,29.95,6.2,South,5.8,-,N/A,,Overcast,180,2013-05-11 03:25:00
5:55 AM,48.2,44.6,87,29.95,6.2,South,9.2,-,N/A,,Overcast,170,2013-05-11 03:55:00
6:25 AM,48.2,44.6,87,29.95,6.2,South,8.1,-,N/A,,Overcast,170,2013-05-11 04:25:00
6:55 AM,50.0,44.6,82,29.95,6.2,South,10.4,-,N/A,,Overcast,180,2013-05-11 04:55:00
7:25 AM,50.0,46.4,87,29.95,6.2,South,8.1,-,N/A,,Overcast,180,2013-05-11 05:25:00
7:55 AM,50.0,46.4,87,29.95,6.2,South,6.9,-,N/A,,Overcast,190,2013-05-11 05:55:00
8:00 AM,50,46,79,29.95,10,South,6.7,,,,Partly Cloudy,180,2013-05-11 06:00:00
8:25 AM,50.0,46.4,87,29.92,6.2,South,9.2,-,N/A,,Overcast,170,2013-05-11 06:25:00
8:55 AM,51.8,46.4,82,29.92,6.2,South,8.1,-,N/A,,Overcast,180,2013-05-11 06:55:00
9:25 AM,51.8,46.4,82,29.92,6.2,South,9.2,-,N/A,Rain,Light Rain,190,2013-05-11 07:25:00
9:55 AM,53.6,48.2,82,29.92,6.2,South,8.1,-,N/A,,Overcast,190,2013-05-11 07:55:00
10:25 AM,53.6,48.2,82,29.92,6.2,South,9.2,-,N/A,Rain,Light Rain,190,2013-05-11 08:25:00
10:29 AM,53.6,48.2,82,29.92,6.2,South,9.2,-,N/A,Rain,Drizzle,190,2013-05-11 08:29:00
10:32 AM,51.8,48.2,88,29.92,6.2,SSW,8.1,-,N/A,Rain,Light Rain Showers,200,2013-05-11 08:32:00
10:35 AM,51.8,48.2,88,29.92,6.2,SSW,8.1,-,N/A,Rain,Light Rain Showers,200,2013-05-11 08:35:00
10:36 AM,51.8,48.2,88,29.92,6.2,South,8.1,-,N/A,Rain,Light Rain Showers,190,2013-05-11 08:36:00
10:55 AM,51.8,50.0,94,29.92,6.2,SSW,9.2,-,N/A,Rain,Light Rain Showers,200,2013-05-11 08:55:00
11:00 AM,52,49,86,29.93,7,SSW,11.2,,,Rain,Light Rain Showers,200,2013-05-11 09:00:00
11:05 AM,51.8,50.0,94,29.92,6.2,SSW,10.4,-,N/A,Rain,Light Rain,200,2013-05-11 09:05:00
11:09 AM,51.8,50.0,94,29.92,6.2,SSW,10.4,-,N/A,Rain,Light Rain Showers,200,2013-05-11 09:09:00
11:13 AM,51.8,50.0,94,29.92,6.2,SSW,9.2,-,N/A,Rain,Light Rain Showers,200,2013-05-11 09:13:00
11:19 AM,51.8,50.0,94,29.92,3.1,SSW,9.2,-,N/A,Rain,Light Rain,210,2013-05-11 09:19:00
11:25 AM,48.2,46.4,93,29.92,4.3,WSW,12.7,24.2,N/A,Rain,Heavy Rain Showers,240,2013-05-11 09:25:00
11:36 AM,48.2,46.4,93,29.92,4.3,West,13.8,-,N/A,Rain,Light Rain Showers,260,2013-05-11 09:36:00
11:40 AM,48.2,46.4,93,29.92,5.0,West,15.0,-,N/A,Rain,Light Rain Showers,260,2013-05-11 09:40:00
11:44 AM,48.2,46.4,93,29.95,4.3,West,13.8,-,N/A,Rain,Light Rain Showers,260,2013-05-11 09:44:00
11:48 AM,48.2,46.4,93,29.95,5.6,West,12.7,-,N/A,Rain,Rain Showers,260,2013-05-11 09:48:00
11:55 AM,48.2,46.4,93,29.95,5.6,West,12.7,-,N/A,Rain,Rain Showers,260,2013-05-11 09:55:00
12:25 PM,48.2,46.4,93,29.95,6.2,WSW,11.5,-,N/A,Rain,Light Rain Showers,250,2013-05-11 10:25:00
12:55 PM,48.2,46.4,93,29.92,6.2,SSW,8.1,-,N/A,Rain,Light Rain,210,2013-05-11 10:55:00
1:25 PM,51.8,46.4,82,29.92,6.2,SSW,13.8,-,N/A,,Overcast,210,2013-05-11 11:25:00
1:55 PM,53.6,48.2,82,29.92,6.2,SSW,13.8,-,N/A,,Mostly Cloudy,210,2013-05-11 11:55:00
1:59 PM,53.6,48.2,82,29.92,6.2,SW,13.8,-,N/A,,Mostly Cloudy,220,2013-05-11 11:59:00
2:00 PM,53,48,77,29.92,25,SW,11.2,,,Rain,Rain,230,2013-05-11 12:00:00
2:25 PM,55.4,48.2,77,29.89,6.2,SW,12.7,-,N/A,,Scattered Clouds,230,2013-05-11 12:25:00
2:55 PM,55.4,44.6,67,29.89,6.2,SW,13.8,27.6,N/A,,Mostly Cloudy,220,2013-05-11 12:55:00
3:25 PM,57.2,48.2,72,29.89,6.2,SSW,11.5,-,N/A,,Mostly Cloudy,210,2013-05-11 13:25:00
3:27 PM,57.2,44.6,63,29.89,6.2,SSW,11.5,23.0,N/A,,Mostly Cloudy,210,2013-05-11 13:27:00
3:55 PM,55.4,41.0,58,29.86,6.2,SW,13.8,-,N/A,Rain,Light Rain,220,2013-05-11 13:55:00
4:00 PM,55.4,42.8,63,29.89,6.2,WSW,15.0,-,N/A,Rain,Light Rain,240,2013-05-11 14:00:00
4:25 PM,55.4,42.8,63,29.89,6.2,WSW,19.6,-,N/A,,Mostly Cloudy,240,2013-05-11 14:25:00
4:55 PM,53.6,46.4,77,29.89,6.2,SW,18.4,-,N/A,Rain,Light Rain Showers,230,2013-05-11 14:55:00
5:00 PM,54,46,67,29.90,10,SW,15.7,,,Rain,Light Rain,230,2013-05-11 15:00:00
5:25 PM,53.6,46.4,77,29.89,6.2,SW,11.5,-,N/A,Rain,Light Rain,230,2013-05-11 15:25:00
5:55 PM,53.6,48.2,82,29.86,6.2,SW,11.5,-,N/A,,Heavy Drizzle,230,2013-05-11 15:55:00
6:25 PM,53.6,48.2,82,29.86,6.2,SW,16.1,-,N/A,,Mostly Cloudy,230,2013-05-11 16:25:00
6:55 PM,55.4,48.2,77,29.86,6.2,WSW,13.8,-,N/A,,Mostly Cloudy,240,2013-05-11 16:55:00
7:13 PM,55.4,48.2,77,29.86,6.2,SW,16.1,-,N/A,Rain,Light Rain,230,2013-05-11 17:13:00
7:17 PM,55.4,48.2,77,29.86,6.2,SW,15.0,-,N/A,Rain,Light Rain,220,2013-05-11 17:17:00
7:25 PM,53.6,48.2,82,29.86,6.2,SW,16.1,-,N/A,Rain,Light Rain,220,2013-05-11 17:25:00
7:27 PM,53.6,48.2,82,29.86,6.2,SW,18.4,-,N/A,,Mostly Cloudy,230,2013-05-11 17:27:00
7:55 PM,53.6,46.4,77,29.86,6.2,SW,16.1,-,N/A,,Overcast,230,2013-05-11 17:55:00
8:00 PM,54,47,69,29.87,28,SW,13.4,,,Rain,Rain,230,2013-05-11 18:00:00
8:25 PM,55.4,46.4,72,29.86,6.2,SW,13.8,-,N/A,,Overcast,230,2013-05-11 18:25:00
8:55 PM,53.6,46.4,77,29.86,6.2,SW,12.7,-,N/A,,Overcast,220,2013-05-11 18:55:00
9:25 PM,53.6,44.6,72,29.86,6.2,SW,13.8,-,N/A,,Unknown,220,2013-05-11 19:25:00
9:55 PM,51.8,44.6,76,29.86,6.2,SW,11.5,-,N/A,,Mostly Cloudy,220,2013-05-11 19:55:00
10:25 PM,53.6,46.4,77,29.86,6.2,SW,13.8,-,N/A,,Mostly Cloudy,220,2013-05-11 20:25:00
10:55 PM,53.6,44.6,72,29.86,6.2,SW,17.3,-,N/A,,Mostly Cloudy,220,2013-05-11 20:55:00
11:00 PM,53,45,67,29.87,19,SW,15.7,,,Rain,Light Rain Showers,220,2013-05-11 21:00:00
11:25 PM,53.6,44.6,72,29.86,6.2,SW,17.3,-,N/A,Rain,Light Rain,230,2013-05-11 21:25:00
11:30 PM,51.8,44.6,76,29.86,6.2,SW,17.3,-,N/A,,Mostly Cloudy,230,2013-05-11 21:30:00
11:55 PM,51.8,42.8,71,29.86,6.2,WSW,16.1,27.6,N/A,,Light Drizzle,240,2013-05-11 21:55:00